Year,Month,Day,Hour,Minute,Value (Times are PST for windspeed in km/hr)
2014,11,06,00,00,0.50
2014,11,06,00,01,0.00
2014,11,06,00,02,0.00
2014,11,06,00,03,0.00
2014,11,06,00,04,0.00
2014,11,06,00,05,0.00
2014,11,06,00,06,0.00
2014,11,06,00,07,0.00
2014,11,06,00,08,0.00
2014,11,06,00,09,0.00
2014,11,06,00,10,0.00
2014,11,06,00,11,0.10
2014,11,06,00,12,0.10
2014,11,06,00,13,0.00
2014,11,06,00,14,0.00
2014,11,06,00,15,0.30
2014,11,06,00,16,0.10
2014,11,06,00,17,0.00
2014,11,06,00,18,0.00
2014,11,06,00,19,0.00
2014,11,06,00,20,0.40
2014,11,06,00,21,0.00
2014,11,06,00,22,0.00
2014,11,06,00,23,0.00
2014,11,06,00,24,0.00
2014,11,06,00,25,0.00
2014,11,06,00,26,0.00
2014,11,06,00,27,0.00
2014,11,06,00,28,0.00
2014,11,06,00,29,0.00
2014,11,06,00,30,0.00
2014,11,06,00,31,0.00
2014,11,06,00,32,0.00
2014,11,06,00,33,0.00
2014,11,06,00,34,0.00
2014,11,06,00,35,0.00
2014,11,06,00,36,0.00
2014,11,06,00,37,0.00
2014,11,06,00,38,0.00
2014,11,06,00,39,0.00
2014,11,06,00,40,0.00
2014,11,06,00,41,0.00
2014,11,06,00,42,0.00
2014,11,06,00,43,0.00
2014,11,06,00,44,0.00
2014,11,06,00,45,0.00
2014,11,06,00,46,0.00
2014,11,06,00,47,0.00
2014,11,06,00,48,0.00
2014,11,06,00,49,0.00
2014,11,06,00,50,0.00
2014,11,06,00,51,0.00
2014,11,06,00,52,0.20
2014,11,06,00,53,0.00
2014,11,06,00,54,0.00
2014,11,06,00,55,0.00
2014,11,06,00,56,0.00
2014,11,06,00,57,0.00
2014,11,06,00,58,0.00
2014,11,06,00,59,0.00
2014,11,06,01,00,0.00
2014,11,06,01,01,0.00
2014,11,06,01,02,0.00
2014,11,06,01,03,0.00
2014,11,06,01,04,0.00
2014,11,06,01,05,0.00
2014,11,06,01,06,0.00
2014,11,06,01,07,0.00
2014,11,06,01,08,0.00
2014,11,06,01,09,0.00
2014,11,06,01,10,0.00
2014,11,06,01,11,0.00
2014,11,06,01,12,0.00
2014,11,06,01,13,0.00
2014,11,06,01,14,0.00
2014,11,06,01,15,0.00
2014,11,06,01,16,0.00
2014,11,06,01,17,0.00
2014,11,06,01,18,0.00
2014,11,06,01,19,0.00
2014,11,06,01,20,0.00
2014,11,06,01,21,0.00
2014,11,06,01,22,0.00
2014,11,06,01,23,0.00
2014,11,06,01,24,0.00
2014,11,06,01,25,0.00
2014,11,06,01,26,0.00
2014,11,06,01,27,0.00
2014,11,06,01,28,0.00
2014,11,06,01,29,0.00
2014,11,06,01,30,0.00
2014,11,06,01,31,0.00
2014,11,06,01,32,0.00
2014,11,06,01,33,0.00
2014,11,06,01,34,0.10
2014,11,06,01,35,0.40
2014,11,06,01,36,0.70
2014,11,06,01,37,0.00
2014,11,06,01,38,0.00
2014,11,06,01,39,0.00
2014,11,06,01,40,0.00
2014,11,06,01,41,0.00
2014,11,06,01,42,0.00
2014,11,06,01,43,0.00
2014,11,06,01,44,0.00
2014,11,06,01,45,0.00
2014,11,06,01,46,0.00
2014,11,06,01,47,0.00
2014,11,06,01,48,0.00
2014,11,06,01,49,0.00
2014,11,06,01,50,0.00
2014,11,06,01,51,0.00
2014,11,06,01,52,0.00
2014,11,06,01,53,0.00
2014,11,06,01,54,0.00
2014,11,06,01,55,0.00
2014,11,06,01,56,0.00
2014,11,06,01,57,0.00
2014,11,06,01,58,0.00
2014,11,06,01,59,0.00
2014,11,06,02,00,0.00
2014,11,06,02,01,0.00
2014,11,06,02,02,0.00
2014,11,06,02,03,0.00
2014,11,06,02,04,0.00
2014,11,06,02,05,0.00
2014,11,06,02,06,0.00
2014,11,06,02,07,0.00
2014,11,06,02,08,0.00
2014,11,06,02,09,0.00
2014,11,06,02,10,0.00
2014,11,06,02,11,0.00
2014,11,06,02,12,0.00
2014,11,06,02,13,0.00
2014,11,06,02,14,0.00
2014,11,06,02,15,0.00
2014,11,06,02,16,0.00
2014,11,06,02,17,0.00
2014,11,06,02,18,0.00
2014,11,06,02,19,0.00
2014,11,06,02,20,0.00
2014,11,06,02,21,0.10
2014,11,06,02,22,0.00
2014,11,06,02,23,0.00
2014,11,06,02,24,0.00
2014,11,06,02,25,0.00
2014,11,06,02,26,0.00
2014,11,06,02,27,0.00
2014,11,06,02,28,0.00
2014,11,06,02,29,0.00
2014,11,06,02,30,0.00
2014,11,06,02,31,0.00
2014,11,06,02,32,0.10
2014,11,06,02,33,0.10
2014,11,06,02,34,1.30
2014,11,06,02,35,0.30
2014,11,06,02,36,0.60
2014,11,06,02,37,1.30
2014,11,06,02,38,1.50
2014,11,06,02,39,1.50
2014,11,06,02,40,0.00
2014,11,06,02,41,0.10
2014,11,06,02,42,0.10
2014,11,06,02,43,0.10
2014,11,06,02,44,0.00
2014,11,06,02,45,1.00
2014,11,06,02,46,3.00
2014,11,06,02,47,0.70
2014,11,06,02,48,0.00
2014,11,06,02,49,0.00
2014,11,06,02,50,0.00
2014,11,06,02,51,0.00
2014,11,06,02,52,0.70
2014,11,06,02,53,0.60
2014,11,06,02,54,0.40
2014,11,06,02,55,0.00
2014,11,06,02,56,0.00
2014,11,06,02,57,0.00
2014,11,06,02,58,0.00
2014,11,06,02,59,0.00
2014,11,06,03,00,0.00
2014,11,06,03,01,0.00
2014,11,06,03,02,0.00
2014,11,06,03,03,0.00
2014,11,06,03,04,0.00
2014,11,06,03,05,0.00
2014,11,06,03,06,0.00
2014,11,06,03,07,0.00
2014,11,06,03,08,0.00
2014,11,06,03,09,0.00
2014,11,06,03,10,0.00
2014,11,06,03,11,0.00
2014,11,06,03,12,0.00
2014,11,06,03,13,0.00
2014,11,06,03,14,0.60
2014,11,06,03,15,1.90
2014,11,06,03,16,3.10
2014,11,06,03,17,3.20
2014,11,06,03,18,1.80
2014,11,06,03,19,1.10
2014,11,06,03,20,0.00
2014,11,06,03,21,0.00
2014,11,06,03,22,0.00
2014,11,06,03,23,0.00
2014,11,06,03,24,0.00
2014,11,06,03,25,0.00
2014,11,06,03,26,0.00
2014,11,06,03,27,0.00
2014,11,06,03,28,0.00
2014,11,06,03,29,0.00
2014,11,06,03,30,0.00
2014,11,06,03,31,0.00
2014,11,06,03,32,0.00
2014,11,06,03,33,0.00
2014,11,06,03,34,0.00
2014,11,06,03,35,0.00
2014,11,06,03,36,0.00
2014,11,06,03,37,0.00
2014,11,06,03,38,0.00
2014,11,06,03,39,0.00
2014,11,06,03,40,0.00
2014,11,06,03,41,0.00
2014,11,06,03,42,0.00
2014,11,06,03,43,0.00
2014,11,06,03,44,1.30
2014,11,06,03,45,2.00
2014,11,06,03,49,2.80
2014,11,06,03,50,1.40
2014,11,06,03,51,0.00
2014,11,06,03,52,0.00
2014,11,06,03,53,0.00
2014,11,06,03,54,0.00
2014,11,06,03,55,0.60
2014,11,06,03,56,0.10
2014,11,06,03,57,0.00
2014,11,06,03,58,0.00
2014,11,06,03,59,0.00
2014,11,06,04,00,0.00
2014,11,06,04,01,0.00
2014,11,06,04,02,0.00
2014,11,06,04,03,1.00
2014,11,06,04,04,2.30
2014,11,06,04,05,0.20
2014,11,06,04,06,0.00
2014,11,06,04,07,0.00
2014,11,06,04,08,0.00
2014,11,06,04,09,0.40
2014,11,06,04,10,1.50
2014,11,06,04,11,0.00
2014,11,06,04,12,0.00
2014,11,06,04,13,0.00
2014,11,06,04,14,0.00
2014,11,06,04,15,0.00
2014,11,06,04,16,0.00
2014,11,06,04,17,1.60
2014,11,06,04,18,3.00
2014,11,06,04,19,2.30
2014,11,06,04,20,0.90
2014,11,06,04,21,0.00
2014,11,06,04,22,0.00
2014,11,06,04,23,0.00
2014,11,06,04,24,0.00
2014,11,06,04,25,0.00
2014,11,06,04,26,0.00
2014,11,06,04,27,1.10
2014,11,06,04,28,0.90
2014,11,06,04,29,1.20
2014,11,06,04,30,0.70
2014,11,06,04,31,0.00
2014,11,06,04,32,0.00
2014,11,06,04,33,0.00
2014,11,06,04,34,0.00
2014,11,06,04,35,0.00
2014,11,06,04,36,0.00
2014,11,06,04,37,0.00
2014,11,06,04,38,0.00
2014,11,06,04,39,0.00
2014,11,06,04,40,0.00
2014,11,06,04,41,0.00
2014,11,06,04,42,0.00
2014,11,06,04,43,0.00
2014,11,06,04,44,0.00
2014,11,06,04,45,0.00
2014,11,06,04,46,0.00
2014,11,06,04,47,0.00
2014,11,06,04,48,0.00
2014,11,06,04,49,0.00
2014,11,06,04,50,0.00
2014,11,06,04,51,0.00
2014,11,06,04,52,0.00
2014,11,06,04,53,0.00
2014,11,06,04,54,0.00
2014,11,06,04,55,0.00
2014,11,06,04,56,0.00
2014,11,06,04,57,0.00
2014,11,06,04,58,0.00
2014,11,06,04,59,0.00
2014,11,06,05,00,0.00
2014,11,06,05,01,0.00
2014,11,06,05,02,0.00
2014,11,06,05,03,0.00
2014,11,06,05,04,1.10
2014,11,06,05,05,3.70
2014,11,06,05,06,2.10
2014,11,06,05,07,1.30
2014,11,06,05,08,3.20
2014,11,06,05,09,0.50
2014,11,06,05,10,0.00
2014,11,06,05,11,0.50
2014,11,06,05,12,1.50
2014,11,06,05,13,2.30
2014,11,06,05,14,1.80
2014,11,06,05,15,0.20
2014,11,06,05,16,0.10
2014,11,06,05,17,0.00
2014,11,06,05,18,0.00
2014,11,06,05,19,0.00
2014,11,06,05,20,0.00
2014,11,06,05,21,0.00
2014,11,06,05,22,0.00
2014,11,06,05,23,0.00
2014,11,06,05,24,0.00
2014,11,06,05,25,0.00
2014,11,06,05,26,0.00
2014,11,06,05,27,0.00
2014,11,06,05,28,0.00
2014,11,06,05,29,0.00
2014,11,06,05,30,0.00
2014,11,06,05,31,0.00
2014,11,06,05,32,0.00
2014,11,06,05,33,0.00
2014,11,06,05,34,0.00
2014,11,06,05,35,1.00
2014,11,06,05,36,0.00
2014,11,06,05,37,0.00
2014,11,06,05,38,0.00
2014,11,06,05,39,0.00
2014,11,06,05,40,0.00
2014,11,06,05,41,0.00
2014,11,06,05,42,0.00
2014,11,06,05,43,0.00
2014,11,06,05,44,0.00
2014,11,06,05,45,0.00
2014,11,06,05,46,0.00
2014,11,06,05,47,0.00
2014,11,06,05,48,0.00
2014,11,06,05,49,0.00
2014,11,06,05,50,0.00
2014,11,06,05,51,0.00
2014,11,06,05,52,0.00
2014,11,06,05,53,0.00
2014,11,06,05,54,0.00
2014,11,06,05,55,0.10
2014,11,06,05,56,0.00
2014,11,06,05,57,0.30
2014,11,06,05,58,1.50
2014,11,06,05,59,0.00
2014,11,06,06,00,0.00
2014,11,06,06,01,0.00
2014,11,06,06,02,0.00
2014,11,06,06,03,0.00
2014,11,06,06,04,0.00
2014,11,06,06,05,0.00
2014,11,06,06,06,0.00
2014,11,06,06,07,0.00
2014,11,06,06,08,0.00
2014,11,06,06,09,0.00
2014,11,06,06,10,0.00
2014,11,06,06,11,0.00
2014,11,06,06,12,0.00
2014,11,06,06,13,0.00
2014,11,06,06,14,0.00
2014,11,06,06,15,0.00
2014,11,06,06,16,0.00
2014,11,06,06,17,0.00
2014,11,06,06,18,0.00
2014,11,06,06,19,0.00
2014,11,06,06,20,0.00
2014,11,06,06,21,0.00
2014,11,06,06,22,0.00
2014,11,06,06,23,0.00
2014,11,06,06,24,0.00
2014,11,06,06,25,0.00
2014,11,06,06,26,0.10
2014,11,06,06,27,0.00
2014,11,06,06,28,0.00
2014,11,06,06,29,0.00
2014,11,06,06,30,0.00
2014,11,06,06,31,0.00
2014,11,06,06,32,0.00
2014,11,06,06,33,0.00
2014,11,06,06,34,0.00
2014,11,06,06,35,0.00
2014,11,06,06,36,0.00
2014,11,06,06,37,0.20
2014,11,06,06,38,0.10
2014,11,06,06,39,0.00
2014,11,06,06,40,0.00
2014,11,06,06,41,0.00
2014,11,06,06,42,0.00
2014,11,06,06,43,0.00
2014,11,06,06,44,0.00
2014,11,06,06,45,0.00
2014,11,06,06,46,0.10
2014,11,06,06,47,0.00
2014,11,06,06,48,0.00
2014,11,06,06,49,0.00
2014,11,06,06,50,0.00
2014,11,06,06,51,0.00
2014,11,06,06,52,0.00
2014,11,06,06,53,0.00
2014,11,06,06,54,0.00
2014,11,06,06,55,0.00
2014,11,06,06,56,0.00
2014,11,06,06,57,0.00
2014,11,06,06,58,0.00
2014,11,06,06,59,0.00
2014,11,06,07,00,0.00
2014,11,06,07,01,0.10
2014,11,06,07,02,0.00
2014,11,06,07,03,0.00
2014,11,06,07,04,0.00
2014,11,06,07,05,0.00
2014,11,06,07,06,0.00
2014,11,06,07,07,0.00
2014,11,06,07,08,0.00
2014,11,06,07,09,0.00
2014,11,06,07,10,0.00
2014,11,06,07,11,0.00
2014,11,06,07,12,0.00
2014,11,06,07,13,0.00
2014,11,06,07,14,0.00
2014,11,06,07,15,0.00
2014,11,06,07,16,0.20
2014,11,06,07,17,1.90
2014,11,06,07,18,1.80
2014,11,06,07,19,0.30
2014,11,06,07,20,0.20
2014,11,06,07,21,0.20
2014,11,06,07,22,0.40
2014,11,06,07,23,0.10
2014,11,06,07,24,1.70
2014,11,06,07,25,3.20
2014,11,06,07,26,1.20
2014,11,06,07,27,0.20
2014,11,06,07,28,0.00
2014,11,06,07,29,2.20
2014,11,06,07,30,1.00
2014,11,06,07,31,0.00
2014,11,06,07,32,0.60
2014,11,06,07,33,1.90
2014,11,06,07,34,2.70
2014,11,06,07,35,2.30
2014,11,06,07,36,0.60
2014,11,06,07,37,0.00
2014,11,06,07,38,0.10
2014,11,06,07,39,2.20
2014,11,06,07,40,1.50
2014,11,06,07,41,0.20
2014,11,06,07,42,0.00
2014,11,06,07,43,0.00
2014,11,06,07,44,0.00
2014,11,06,07,45,0.00
2014,11,06,07,46,2.50
2014,11,06,07,47,0.60
2014,11,06,07,48,2.30
2014,11,06,07,49,2.30
2014,11,06,07,50,3.50
2014,11,06,07,51,3.90
2014,11,06,07,52,6.10
2014,11,06,07,53,5.10
2014,11,06,07,54,5.20
2014,11,06,07,55,7.00
2014,11,06,07,56,4.70
2014,11,06,07,57,4.80
2014,11,06,07,58,0.70
2014,11,06,07,59,0.10
2014,11,06,08,00,1.60
2014,11,06,08,01,6.40
2014,11,06,08,02,4.20
2014,11,06,08,03,1.00
2014,11,06,08,04,1.00
2014,11,06,08,05,3.10
2014,11,06,08,06,6.00
2014,11,06,08,07,6.90
2014,11,06,08,08,8.60
2014,11,06,08,09,2.70
2014,11,06,08,10,6.40
2014,11,06,08,11,4.60
2014,11,06,08,12,3.40
2014,11,06,08,13,0.70
2014,11,06,08,14,4.70
2014,11,06,08,15,1.60
2014,11,06,08,16,1.30
2014,11,06,08,17,3.00
2014,11,06,08,18,0.10
2014,11,06,08,19,0.00
2014,11,06,08,20,0.00
2014,11,06,08,21,0.00
2014,11,06,08,22,0.90
2014,11,06,08,23,0.10
2014,11,06,08,24,0.30
2014,11,06,08,25,0.00
2014,11,06,08,26,1.70
2014,11,06,08,27,2.00
2014,11,06,08,28,0.00
2014,11,06,08,29,0.10
2014,11,06,08,30,3.50
2014,11,06,08,31,3.30
2014,11,06,08,32,1.70
2014,11,06,08,33,0.20
2014,11,06,08,34,0.50
2014,11,06,08,35,0.60
2014,11,06,08,36,3.80
2014,11,06,08,37,4.30
2014,11,06,08,38,2.20
2014,11,06,08,39,0.80
2014,11,06,08,40,3.90
2014,11,06,08,41,1.90
2014,11,06,08,42,2.10
2014,11,06,08,43,4.80
2014,11,06,08,44,5.10
2014,11,06,08,45,6.10
2014,11,06,08,46,6.00
2014,11,06,08,47,3.90
2014,11,06,08,48,0.20
2014,11,06,08,49,3.20
2014,11,06,08,50,3.50
2014,11,06,08,51,3.50
2014,11,06,08,52,2.00
2014,11,06,08,53,3.00
2014,11,06,08,54,2.30
2014,11,06,08,55,2.40
2014,11,06,08,56,0.70
2014,11,06,08,57,1.30
2014,11,06,08,58,2.60
2014,11,06,08,59,0.20
2014,11,06,09,00,1.10
2014,11,06,09,01,1.60
2014,11,06,09,02,3.90
2014,11,06,09,03,3.70
2014,11,06,09,04,3.50
2014,11,06,09,05,2.90
2014,11,06,09,06,2.70
2014,11,06,09,07,2.60
2014,11,06,09,08,1.90
2014,11,06,09,09,1.50
2014,11,06,09,10,0.60
2014,11,06,09,11,0.20
2014,11,06,09,12,0.10
2014,11,06,09,13,2.40
2014,11,06,09,14,3.20
2014,11,06,09,15,2.70
2014,11,06,09,16,2.70
2014,11,06,09,17,0.70
2014,11,06,09,18,0.30
2014,11,06,09,19,0.20
2014,11,06,09,20,2.70
2014,11,06,09,21,4.20
2014,11,06,09,22,4.40
2014,11,06,09,23,2.70
2014,11,06,09,24,2.50
2014,11,06,09,25,3.50
2014,11,06,09,26,3.90
2014,11,06,09,27,5.00
2014,11,06,09,28,1.70
2014,11,06,09,29,3.10
2014,11,06,09,30,7.80
2014,11,06,09,31,8.80
2014,11,06,09,32,6.50
2014,11,06,09,33,4.70
2014,11,06,09,34,4.20
2014,11,06,09,35,1.70
2014,11,06,09,36,0.20
2014,11,06,09,37,0.20
2014,11,06,09,38,1.60
2014,11,06,09,39,1.90
2014,11,06,09,40,1.00
2014,11,06,09,41,0.10
2014,11,06,09,42,1.40
2014,11,06,09,43,0.20
2014,11,06,09,44,0.90
2014,11,06,09,45,1.50
2014,11,06,09,46,2.00
2014,11,06,09,47,5.60
2014,11,06,09,48,0.90
2014,11,06,09,49,3.50
2014,11,06,09,50,5.10
2014,11,06,09,51,5.90
2014,11,06,09,52,10.30
2014,11,06,09,53,6.00
2014,11,06,09,54,6.10
2014,11,06,09,55,5.70
2014,11,06,09,56,4.60
2014,11,06,09,57,7.90
2014,11,06,09,58,4.80
2014,11,06,09,59,0.70
2014,11,06,10,00,0.10
2014,11,06,10,01,2.80
2014,11,06,10,02,6.40
2014,11,06,10,03,1.80
2014,11,06,10,04,0.30
2014,11,06,10,05,1.80
2014,11,06,10,06,2.50
2014,11,06,10,07,0.20
2014,11,06,10,08,0.10
2014,11,06,10,09,3.00
2014,11,06,10,10,4.60
2014,11,06,10,11,5.10
2014,11,06,10,12,7.80
2014,11,06,10,13,13.90
2014,11,06,10,14,6.70
2014,11,06,10,15,4.30
2014,11,06,10,16,14.30
2014,11,06,10,17,9.60
2014,11,06,10,18,12.50
2014,11,06,10,19,9.50
2014,11,06,10,20,13.20
2014,11,06,10,21,4.70
2014,11,06,10,22,7.20
2014,11,06,10,23,6.90
2014,11,06,10,24,7.40
2014,11,06,10,25,6.50
2014,11,06,10,26,11.80
2014,11,06,10,27,11.30
2014,11,06,10,28,20.30
2014,11,06,10,29,15.00
2014,11,06,10,30,13.40
2014,11,06,10,31,6.30
2014,11,06,10,32,9.80
2014,11,06,10,33,9.60
2014,11,06,10,34,24.60
2014,11,06,10,35,18.90
2014,11,06,10,36,17.10
2014,11,06,10,37,15.40
2014,11,06,10,38,16.70
2014,11,06,10,39,10.50
2014,11,06,10,40,9.00
2014,11,06,10,41,14.60
2014,11,06,10,42,14.50
2014,11,06,10,43,21.00
2014,11,06,10,44,17.10
2014,11,06,10,45,10.10
2014,11,06,10,46,11.00
2014,11,06,10,47,12.70
2014,11,06,10,48,14.00
2014,11,06,10,49,12.50
2014,11,06,10,50,16.70
2014,11,06,10,51,15.30
2014,11,06,10,52,19.60
2014,11,06,10,53,30.40
2014,11,06,10,54,24.30
2014,11,06,10,55,25.50
2014,11,06,10,56,21.60
2014,11,06,10,57,16.10
2014,11,06,10,58,14.80
2014,11,06,10,59,23.50
2014,11,06,11,00,21.40
2014,11,06,11,01,20.50
2014,11,06,11,02,16.20
2014,11,06,11,03,10.60
2014,11,06,11,04,22.90
2014,11,06,11,05,29.50
2014,11,06,11,06,24.50
2014,11,06,11,07,19.80
2014,11,06,11,08,17.30
2014,11,06,11,09,13.10
2014,11,06,11,10,14.10
2014,11,06,11,11,15.90
2014,11,06,11,12,18.40
2014,11,06,11,13,22.90
2014,11,06,13,18,25.20
2014,11,06,13,19,18.80
2014,11,06,13,20,29.30
2014,11,06,13,21,33.50
2014,11,06,13,22,23.60
2014,11,06,13,23,16.00
2014,11,06,13,24,26.60
2014,11,06,13,25,21.50
2014,11,06,13,26,26.80
2014,11,06,13,27,29.10
2014,11,06,13,28,19.30
2014,11,06,13,29,15.10
2014,11,06,13,30,20.00
2014,11,06,13,31,25.70
2014,11,06,13,32,23.70
2014,11,06,13,33,30.30
2014,11,06,13,34,11.90
2014,11,06,13,35,24.60
2014,11,06,13,36,24.70
2014,11,06,13,37,34.40
2014,11,06,13,38,33.10
2014,11,06,13,39,34.70
2014,11,06,13,40,25.30
2014,11,06,13,41,34.80
2014,11,06,13,42,17.10
2014,11,06,13,43,24.90
2014,11,06,13,44,23.50
2014,11,06,13,45,15.10
2014,11,06,13,46,22.00
2014,11,06,13,47,17.90
2014,11,06,13,48,19.80
2014,11,06,13,49,18.10
2014,11,06,13,50,22.80
2014,11,06,13,51,27.60
2014,11,06,13,52,27.00
2014,11,06,13,53,30.90
2014,11,06,13,54,28.00
2014,11,06,13,55,26.00
2014,11,06,13,56,21.50
2014,11,06,13,57,24.90
2014,11,06,13,58,16.30
2014,11,06,13,59,11.60
2014,11,06,20,06,13.30
2014,11,06,20,07,0.80
2014,11,06,20,08,3.10
2014,11,06,20,09,7.30
2014,11,06,20,10,4.40
2014,11,06,20,11,5.90
2014,11,06,20,12,1.90
2014,11,06,20,13,5.70
2014,11,06,20,14,8.70
2014,11,06,20,15,6.80
2014,11,06,20,16,0.20
2014,11,06,20,17,1.40
2014,11,06,20,18,3.60
2014,11,06,20,19,1.80
2014,11,06,20,20,6.40
2014,11,06,20,21,9.50
2014,11,06,20,22,8.50
2014,11,06,20,23,6.50
2014,11,06,20,24,2.80
2014,11,06,20,25,5.30
2014,11,06,20,26,2.80
2014,11,06,20,27,6.00
2014,11,06,20,28,4.30
2014,11,06,20,29,2.20
2014,11,06,20,30,6.60
2014,11,06,20,31,7.20
2014,11,06,20,32,8.70
2014,11,06,20,33,8.40
2014,11,06,20,34,8.40
2014,11,06,20,35,4.60
2014,11,06,20,36,1.90
2014,11,06,20,37,3.30
2014,11,06,20,38,5.00
2014,11,06,20,39,7.40
2014,11,06,20,40,9.10
2014,11,06,20,41,5.80
2014,11,06,20,42,5.60
2014,11,06,20,43,4.30
2014,11,06,20,44,5.20
2014,11,06,20,45,8.10
2014,11,06,20,46,9.70
2014,11,06,20,47,2.20
2014,11,06,20,48,5.90
2014,11,06,20,49,9.10
2014,11,06,20,50,3.70
2014,11,06,20,51,9.00
2014,11,06,20,52,17.00
2014,11,06,20,53,9.80
2014,11,06,20,54,12.00
2014,11,06,20,55,7.80
2014,11,06,20,56,13.00
2014,11,06,20,57,11.90
2014,11,06,20,58,8.70
2014,11,06,20,59,8.50
2014,11,06,21,00,10.20
2014,11,06,21,01,15.00
2014,11,06,21,02,9.60
2014,11,06,21,03,5.20
2014,11,06,21,04,8.40
2014,11,06,21,05,7.60
2014,11,06,21,06,4.20
2014,11,06,21,07,3.90
2014,11,06,21,08,13.70
2014,11,06,21,09,10.10
2014,11,06,21,10,4.20
2014,11,06,21,11,6.90
2014,11,06,21,12,5.50
2014,11,06,21,13,13.00
2014,11,06,21,14,9.30
2014,11,06,21,15,3.90
2014,11,06,21,16,4.10
2014,11,06,21,17,8.40
2014,11,06,21,18,9.60
2014,11,06,21,19,13.70
2014,11,06,21,20,4.70
2014,11,06,21,21,3.90
2014,11,06,21,22,3.50
2014,11,06,21,23,4.10
2014,11,06,21,24,8.90
2014,11,06,21,25,9.20
2014,11,06,21,26,3.30
2014,11,06,21,27,2.70
2014,11,06,21,28,7.80
2014,11,06,21,29,4.90
2014,11,06,21,30,6.40
2014,11,06,21,31,7.60
2014,11,06,21,32,1.40
2014,11,06,21,33,3.50
2014,11,06,21,34,4.10
2014,11,06,21,35,0.80
2014,11,06,21,36,0.00
2014,11,06,21,37,4.40
2014,11,06,21,38,8.30
2014,11,06,21,39,1.10
2014,11,06,21,40,4.90
2014,11,06,21,41,4.90
2014,11,06,21,42,9.30
2014,11,06,21,43,9.60
2014,11,06,21,44,3.60
2014,11,06,21,45,6.20
2014,11,06,21,46,6.30
2014,11,06,21,47,0.50
2014,11,06,21,48,1.10
2014,11,06,21,49,0.20
2014,11,06,21,50,3.30
2014,11,06,21,51,5.10
2014,11,06,21,52,8.20
2014,11,06,21,53,6.10
2014,11,06,21,54,4.70
2014,11,06,21,55,3.30
2014,11,06,21,56,0.10
2014,11,06,21,57,3.10
2014,11,06,21,58,4.00
2014,11,06,21,59,1.90
2014,11,06,22,00,0.00
2014,11,06,22,01,2.00
2014,11,06,22,02,0.40
2014,11,06,22,03,7.10
2014,11,06,22,04,1.90
2014,11,06,22,05,2.80
2014,11,06,22,06,8.10
2014,11,06,22,07,5.50
2014,11,06,22,08,3.50
2014,11,06,22,09,1.90
2014,11,06,22,10,1.00
2014,11,06,22,11,2.40
2014,11,06,22,12,1.00
2014,11,06,22,13,0.10
2014,11,06,22,14,0.20
2014,11,06,22,15,2.20
2014,11,06,22,16,10.50
2014,11,06,22,17,5.10
2014,11,06,22,18,3.70
2014,11,06,22,19,0.20
2014,11,06,22,20,3.50
2014,11,06,22,21,1.30
2014,11,06,22,22,4.70
2014,11,06,22,23,6.80
2014,11,06,22,24,1.50
2014,11,06,22,25,3.20
2014,11,06,22,26,3.40
2014,11,06,22,27,0.90
2014,11,06,22,28,1.00
2014,11,06,22,29,2.00
2014,11,06,22,30,4.90
2014,11,06,22,31,0.50
2014,11,06,22,32,4.20
2014,11,06,22,33,4.20
2014,11,06,22,34,5.60
2014,11,06,22,35,6.80
2014,11,06,22,36,4.00
2014,11,06,22,37,3.10
2014,11,06,22,38,3.10
2014,11,06,22,39,3.50
2014,11,06,22,40,0.30
2014,11,06,22,41,2.70
2014,11,06,22,42,0.50
2014,11,06,22,43,2.40
2014,11,06,22,44,0.60
2014,11,06,22,45,3.90
2014,11,06,22,46,0.20
2014,11,06,22,47,5.40
2014,11,06,22,48,2.70
2014,11,06,22,49,3.20
2014,11,06,22,50,0.70
2014,11,06,22,51,2.00
2014,11,06,22,52,0.00
2014,11,06,22,53,1.20
2014,11,06,22,54,3.50
2014,11,06,22,55,0.20
2014,11,06,22,56,2.90
2014,11,06,22,57,0.40
2014,11,06,22,58,0.70
2014,11,06,22,59,0.90
2014,11,06,23,00,0.00
2014,11,06,23,01,0.20
2014,11,06,23,02,0.20
2014,11,06,23,03,2.20
2014,11,06,23,04,1.20
2014,11,06,23,05,0.00
2014,11,06,23,06,0.40
2014,11,06,23,07,2.50
2014,11,06,23,08,0.50
2014,11,06,23,09,1.50
2014,11,06,23,10,0.20
2014,11,06,23,11,0.00
2014,11,06,23,12,0.00
2014,11,06,23,13,0.10
2014,11,06,23,14,3.40
2014,11,06,23,15,0.60
2014,11,06,23,16,0.60
2014,11,06,23,17,3.50
2014,11,06,23,18,0.10
2014,11,06,23,19,2.30
2014,11,06,23,20,8.00
2014,11,06,23,21,7.90
2014,11,06,23,22,4.10
2014,11,06,23,23,1.20
2014,11,06,23,24,0.10
2014,11,06,23,25,0.00
2014,11,06,23,26,1.30
2014,11,06,23,27,1.00
2014,11,06,23,28,5.10
2014,11,06,23,29,2.70
2014,11,06,23,30,0.50
2014,11,06,23,31,2.70
2014,11,06,23,32,7.00
2014,11,06,23,33,0.60
2014,11,06,23,34,6.40
2014,11,06,23,35,6.00
2014,11,06,23,36,4.70
2014,11,06,23,37,4.80
2014,11,06,23,38,0.00
2014,11,06,23,39,0.10
2014,11,06,23,40,3.30
2014,11,06,23,41,4.60
2014,11,06,23,42,4.40
2014,11,06,23,43,3.80
2014,11,06,23,44,0.00
2014,11,06,23,45,1.60
2014,11,06,23,46,6.00
2014,11,06,23,47,4.40
2014,11,06,23,48,2.40
2014,11,06,23,49,0.10
2014,11,06,23,50,4.80
2014,11,06,23,51,4.70
2014,11,06,23,52,4.90
2014,11,06,23,53,2.00
2014,11,06,23,54,1.40
2014,11,06,23,55,8.50
2014,11,06,23,56,0.70
2014,11,06,23,57,1.20
2014,11,06,23,58,3.30
2014,11,06,23,59,0.60
